[[{"header":{"parameterUnit":"m.s-1","parameterCategory":1,"la1":30.2991,"la2":30.254,"lo1":-89.0895,"lo2":-89.0444,"dy":0.0017,"dx":0.0017,"nx":28,"ny":28,"refTime":"2024-02-13T09:00:00:Z","depth":0,"parameterNumber":2,"parameterNumberName":"U-component_of_WINDS"},"data":[0,0,0,0,0,0,0,0,0,0,0,0,0,0,0,0,0,0,0,0,0,0,0,0,0,0,0,0,0,0,0,0,0,0,0,0,0,0,0,0,0,0,0,0,0,0,0,0,0,0,0,0,0,0,0,0,0,0,-1.5965,-1.5965,0,-1.5897,-1.5896,-1.5895,-1.5788,-1.5786,-1.5784,-1.5782,-1.5715,-1.5716,-1.5716,0,0,0,0,0,0,0,0,0,0,0,0,0,-1.6008,-1.6007,-1.5965,-1.5965,-1.5964,-1.5897,-1.5896,-1.5895,-1.5788,-1.5786,-1.5784,-1.5781,-1.5715,-1.5715,-1.5716,0,0,0,0,0,0,0,0,0,0,0,0,0,-1.5969,-1.6007,-1.5966,-1.5902,-1.5896,-1.5897,-1.5896,-1.5895,-1.5789,-1.5786,-1.5783,-1.578,-1.5715,-1.5715,-1.5716,-1.5774,0,0,-1.5716,-1.5716,0,0,0,0,0,0,0,0,-1.5972,-1.5968,-1.5912,-1.5907,-1.59,-1.5848,-1.5886,-1.5855,-1.579,-1.583,-1.5782,-1.5779,-1.5762,-1.5758,-1.5752,-1.5771,-1.5768,-1.5716,-1.5716,-1.5716,-1.5716,0,0,0,0,0,0,0,-1.5975,-1.597,-1.5938,-1.5912,-1.5904,-1.5879,-1.587,-1.588,-1.5813,-1.5826,-1.5818,-1.5811,-1.5758,-1.5752,-1.5749,-1.5767,-1.5716,-1.5716,-1.5716,-1.5716,-1.5834,-1.5836,0,0,0,0,0,0,-1.5986,-1.5973,-1.5941,-1.5936,-1.5929,-1.588,-1.5871,-1.5868,-1.5813,-1.5802,-1.5814,-1.5806,-1.5753,-1.575,-1.5747,-1.5813,-1.5716,-1.5716,-1.5716,-1.583,-1.5834,-1.5838,0,0,0,0,0,0,-1.5987,-1.5984,-1.5943,-1.5953,-1.5945,-1.5883,-1.588,-1.5868,-1.5861,-1.5803,-1.5791,-1.582,-1.5751,-1.5747,-1.5768,-1.5809,-1.5716,-1.5716,-1.5827,-1.5832,-1.5836,-1.5945,0,0,0,0,0,0,-1.5989,-1.5985,-1.6006,-1.5954,-1.5945,-1.5965,-1.5883,-1.5869,-1.5861,-1.5851,-1.5806,-1.5795,-1.5748,-1.5769,-1.5769,-1.5807,-1.5716,-1.5823,-1.5829,-1.5834,-1.5938,-1.5953,-1.5966,0,0,0,0,0,-1.5991,-1.6039,-1.6007,-1.6004,-1.597,-1.5968,-1.5963,-1.5907,-1.5865,-1.5886,-1.5849,-1.5797,-1.5805,-1.5772,-1.5771,-1.581,-1.582,-1.5827,-1.5834,-1.5931,-1.595,-1.5966,0,0,0,0,0,0,-1.6098,-1.6031,-1.5995,-1.6028,-1.6004,-1.595,-1.5974,-1.5928,-1.5916,-1.5907,-1.5839,-1.583,-1.5861,-1.5838,-1.5802,-1.5865,-1.5805,-1.5812,-1.5879,-1.5896,-1.591,-1.5915,-1.5716,0,0,0,0,0,-1.6126,-1.6129,-1.607,-1.6105,-1.6095,-1.6037,-1.6034,-1.5993,-1.5966,-1.5956,-1.592,-1.5897,-1.5895,-1.5894,-1.5888,-1.5934,-1.5924,-1.5961,-1.5975,-1.5987,-1.5994,-1.6018,-1.6034,-1.586,-1.586,-1.586,0,0,-1.6183,-1.6146,-1.6152,-1.6126,-1.6103,-1.6109,-1.6029,-1.6039,-1.6043,-1.5957,-1.5976,-1.595,-1.5919,-1.5954,-1.5967,-1.5935,-1.604,-1.5996,-1.6006,-1.6006,-1.6027,-1.6044,-1.6058,-1.5865,-1.5864,-1.5864,0,0,-1.6289,-1.6262,-1.6288,-1.6267,-1.6233,-1.6194,-1.6201,-1.6153,-1.6132,-1.6149,-1.6086,-1.6091,-1.6087,-1.6069,-1.6059,-1.6162,-1.6114,-1.6162,-1.6236,-1.626,-1.6274,-1.6286,-1.6323,-1.6338,-1.6169,-1.6169,-1.6169,0,-1.6364,-1.6369,-1.6308,-1.6321,-1.6313,-1.6236,-1.6263,-1.6246,-1.6212,-1.6208,-1.6173,-1.6168,-1.6142,-1.6172,-1.6197,-1.6192,-1.6198,-1.6166,-1.6277,-1.6288,-1.6298,-1.6333,-1.6348,-1.6175,-1.6175,-1.6174,-1.6173,0,-1.6464,-1.6469,-1.6495,-1.6464,-1.6458,-1.6479,-1.6422,-1.6424,-1.6384,-1.635,-1.637,-1.6336,-1.6323,-1.6327,-1.6288,-1.6352,-1.6334,-1.6289,-1.6226,-1.6322,-1.6354,-1.6367,-1.6184,-1.6182,-1.618,-1.6178,0,0,-1.6635,-1.6571,-1.6581,-1.6567,-1.6525,-1.6528,-1.6546,-1.6533,-1.6536,-1.6516,-1.6531,-1.6531,-1.6489,-1.6478,-1.6437,-1.6459,-1.6544,-1.6411,-1.6409,-1.6437,-1.6614,-1.6648,-1.6664,-1.6512,-1.6514,-1.6516,-1.6616,0,-1.6733,-1.6759,-1.6705,-1.6745,-1.675,-1.6678,-1.6694,-1.6671,-1.664,-1.6641,-1.6607,-1.6608,-1.6553,-1.6546,-1.6564,-1.653,-1.6578,-1.6521,-1.6526,-1.6527,-1.6536,-1.6681,-1.6716,-1.6813,-1.6628,-1.663,-1.6632,0,-1.685,-1.6836,-1.6876,-1.6833,-1.6833,-1.6848,-1.6833,-1.6834,-1.6807,-1.6783,-1.6773,-1.6724,-1.6741,-1.6682,-1.6705,-1.6667,-1.6666,-1.665,-1.6653,-1.6651,-1.6585,-1.6684,-1.6842,-1.6857,-1.6651,-1.6649,-1.6648,0,-1.6972,-1.6963,-1.6986,-1.6976,-1.6926,-1.6939,-1.6919,-1.6889,-1.6885,-1.6872,-1.6869,-1.6859,-1.6853,-1.6847,-1.6799,-1.676,-1.6828,-1.6764,-1.681,-1.6812,-1.6828,-1.6827,-1.6989,-1.6827,-1.6827,-1.6827,-1.6826,0,-1.7087,-1.7114,-1.704,-1.7054,-1.7084,-1.7023,-1.7055,-1.7028,-1.7002,-1.7011,-1.6949,-1.6959,-1.6894,-1.6898,-1.686,-1.6886,-1.6884,-1.6866,-1.6856,-1.6872,-1.6874,-1.687,-1.6862,-1.683,-1.683,-1.6829,-1.6828,0,-1.7227,-1.7178,-1.7199,-1.715,-1.7139,-1.7163,-1.7122,-1.7134,-1.71,-1.7113,-1.7112,-1.7059,-1.7061,-1.7012,-1.7003,-1.6978,-1.7021,-1.6998,-1.7029,-1.7022,-1.7071,-1.7068,-1.7236,-1.7255,-1.7082,-1.7083,-1.7085,0,-1.7303,-1.7323,-1.7277,-1.7278,-1.7261,-1.7264,-1.726,-1.7202,-1.7201,-1.7173,-1.7189,-1.7185,-1.7179,-1.7185,-1.7147,-1.7141,-1.7118,-1.7177,-1.7116,-1.7132,-1.7119,-1.7119,-1.7121,-1.719,-1.7192,-1.7194,-1.7195,0,-1.7445,-1.742,-1.7416,-1.7404,-1.7401,-1.7389,-1.7373,-1.7378,-1.7315,-1.7317,-1.7317,-1.7312,-1.7304,-1.7302,-1.7289,-1.727,-1.7223,-1.7215,-1.7225,-1.7242,-1.7259,-1.7251,-1.7065,-1.7211,-1.721,-1.7208,-1.7208,-1.7207,-1.7555,-1.757,-1.7541,-1.7539,-1.7521,-1.7508,-1.7517,-1.7485,-1.7484,-1.7472,-1.7438,-1.7445,-1.742,-1.7398,-1.7383,-1.7389,-1.7359,-1.7374,-1.7378,-1.7383,-1.7392,-1.7259,-1.7386,-1.7386,-1.7385,-1.7385,-1.7384,0,-1.7694,-1.7672,-1.7671,-1.7651,-1.765,-1.7605,-1.7586,-1.7589,-1.7595,-1.7575,-1.7571,-1.7572,-1.757,-1.7533,-1.7527,-1.7539,-1.7517,-1.7539,-1.7538,-1.7534,-1.7418,-1.741,-1.7556,-1.7556,-1.7556,-1.7556,-1.7556,-1.7556,-1.7766,-1.7789,-1.7762,-1.7776,-1.7754,-1.7759,-1.7752,-1.7741,-1.7725,-1.7729,-1.7727,-1.7702,-1.7676,-1.7668,-1.7665,-1.7654,-1.7655,-1.7684,-1.7667,-1.7559,-1.7542,-1.7526,-1.7518,-1.7685,-1.7685,-1.7782,-1.7783,-1.7783]},{"header":{"parameterUnit":"m.s-1","parameterCategory":1,"la1":30.2991,"la2":30.254,"lo1":-89.0895,"lo2":-89.0444,"dy":0.0017,"dx":0.0017,"nx":28,"ny":28,"refTime":"2024-02-13T09:00:00:Z","depth":0,"parameterNumber":3,"parameterNumberName":"V-component_of_WINDS"},"data":[0,0,0,0,0,0,0,0,0,0,0,0,0,0,0,0,0,0,0,0,0,0,0,0,0,0,0,0,0,0,0,0,0,0,0,0,0,0,0,0,0,0,0,0,0,0,0,0,0,0,0,0,0,0,0,0,0,0,1.4461,1.4461,0,1.4426,1.4425,1.4425,1.4455,1.4456,1.4458,1.4459,1.4416,1.4413,1.4411,0,0,0,0,0,0,0,0,0,0,0,0,0,1.4551,1.4549,1.4461,1.4461,1.446,1.4426,1.4425,1.4425,1.4455,1.4456,1.4458,1.4459,1.4417,1.4414,1.4411,0,0,0,0,0,0,0,0,0,0,0,0,0,1.4513,1.4548,1.4461,1.4471,1.4472,1.4426,1.4425,1.4424,1.4454,1.4456,1.4458,1.446,1.4417,1.4414,1.4411,1.4351,0,0,1.44,1.4398,0,0,0,0,0,0,0,0,1.4515,1.451,1.447,1.4471,1.4471,1.4447,1.4441,1.4399,1.4454,1.4461,1.4459,1.4461,1.4424,1.442,1.4409,1.4349,1.4347,1.44,1.4397,1.4396,1.4395,0,0,0,0,0,0,0,1.4518,1.4511,1.4447,1.447,1.447,1.4476,1.4473,1.4433,1.4432,1.446,1.4463,1.4458,1.4425,1.4412,1.4408,1.4346,1.44,1.4397,1.4394,1.4393,1.4234,1.4232,0,0,0,0,0,0,1.452,1.4513,1.4448,1.4446,1.4498,1.4473,1.4469,1.4453,1.4433,1.4431,1.4457,1.446,1.4417,1.4412,1.4407,1.4335,1.4396,1.4393,1.4391,1.4237,1.4234,1.4232,0,0,0,0,0,0,1.4522,1.4514,1.445,1.448,1.4473,1.4469,1.445,1.4451,1.4439,1.443,1.4429,1.4445,1.4419,1.4412,1.4365,1.4334,1.4391,1.4388,1.4239,1.4236,1.4233,1.419,0,0,0,0,0,0,1.4524,1.4514,1.4492,1.448,1.4471,1.4409,1.4448,1.4449,1.4433,1.4437,1.4418,1.4417,1.442,1.437,1.4361,1.433,1.4385,1.4242,1.4238,1.4234,1.4194,1.4186,1.4179,0,0,0,0,0,1.4527,1.448,1.4491,1.4483,1.4444,1.4408,1.4402,1.4408,1.4431,1.4408,1.4402,1.4418,1.4339,1.4365,1.4355,1.4322,1.4244,1.4239,1.4234,1.4198,1.4187,1.4179,0,0,0,0,0,0,1.4487,1.4479,1.4491,1.4439,1.4424,1.4413,1.4384,1.4397,1.4374,1.4378,1.4385,1.438,1.4331,1.4322,1.4351,1.4263,1.4295,1.4288,1.427,1.426,1.4253,1.4255,1.4382,0,0,0,0,0,1.4473,1.4446,1.444,1.4394,1.4387,1.4387,1.4371,1.4377,1.4361,1.4354,1.4345,1.4328,1.4299,1.428,1.4253,1.4194,1.419,1.4167,1.4159,1.4153,1.4146,1.4113,1.4103,1.4216,1.4216,1.4216,0,0,1.4442,1.4434,1.4416,1.4386,1.4375,1.4345,1.4381,1.4348,1.4325,1.4349,1.4304,1.4297,1.4278,1.4224,1.42,1.4216,1.4114,1.4147,1.4142,1.4138,1.4107,1.4097,1.4087,1.4213,1.4213,1.4214,0,0,1.437,1.4362,1.4323,1.4312,1.4297,1.4297,1.4288,1.4276,1.4272,1.4228,1.4245,1.4218,1.4169,1.4154,1.414,1.4065,1.4077,1.4056,1.4014,1.3983,1.3974,1.3966,1.3937,1.3927,1.405,1.405,1.405,0,1.4332,1.429,1.4301,1.4267,1.4253,1.4276,1.4236,1.4224,1.4199,1.4188,1.4207,1.4146,1.4134,1.4078,1.406,1.4048,1.4036,1.4057,1.3975,1.3967,1.3959,1.3932,1.3922,1.4047,1.4047,1.4048,1.4048,0,1.4244,1.4214,1.4185,1.4163,1.4146,1.4108,1.4113,1.4094,1.4102,1.41,1.4055,1.4043,1.4014,1.4001,1.4008,1.3945,1.3955,1.3974,1.4005,1.3946,1.392,1.391,1.4043,1.4044,1.4045,1.4046,0,0,1.4142,1.4129,1.4118,1.4108,1.4094,1.407,1.4034,1.4008,1.3991,1.3974,1.3942,1.3901,1.3919,1.3903,1.3909,1.3882,1.3821,1.3904,1.3903,1.3887,1.375,1.3734,1.3722,1.3831,1.3829,1.3828,1.3751,0,1.4069,1.4008,1.4018,1.3958,1.393,1.3953,1.3921,1.3908,1.3906,1.3881,1.3878,1.3848,1.3875,1.3865,1.384,1.3834,1.3793,1.384,1.3799,1.3798,1.3801,1.3709,1.3692,1.362,1.3741,1.3739,1.3738,0,1.3973,1.3955,1.3893,1.3884,1.3872,1.3844,1.3821,1.3798,1.3783,1.3783,1.3767,1.3778,1.374,1.3775,1.3722,1.3754,1.3738,1.3733,1.3731,1.3725,1.3762,1.3698,1.3597,1.3586,1.3723,1.3724,1.3725,0,1.3903,1.3863,1.3821,1.3812,1.38,1.378,1.3774,1.3761,1.3745,1.3725,1.3714,1.3689,1.3675,1.3655,1.3658,1.3683,1.3604,1.3639,1.3601,1.3601,1.3581,1.3582,1.3474,1.3575,1.3575,1.3575,1.3575,0,1.3818,1.3779,1.379,1.3763,1.372,1.3732,1.3688,1.3684,1.3673,1.3645,1.3663,1.3636,1.3644,1.3617,1.362,1.3575,1.3569,1.3567,1.3567,1.3563,1.3563,1.3551,1.3555,1.3572,1.3573,1.3574,1.3574,0,1.3731,1.3737,1.3693,1.3686,1.3684,1.3652,1.3645,1.362,1.3621,1.3585,1.3577,1.3577,1.3547,1.355,1.3514,1.3516,1.346,1.3468,1.3466,1.3466,1.3428,1.3431,1.3306,1.329,1.3404,1.3403,1.3402,0,1.3675,1.3646,1.3637,1.3621,1.3614,1.3587,1.3572,1.3583,1.3565,1.3547,1.3523,1.3495,1.3473,1.3423,1.3418,1.3392,1.3397,1.3356,1.3393,1.339,1.3394,1.3395,1.3392,1.3347,1.3346,1.3345,1.3344,0,1.3575,1.358,1.3558,1.3537,1.3518,1.3502,1.3487,1.3472,1.3481,1.3461,1.3431,1.3414,1.338,1.335,1.3326,1.3317,1.3331,1.3333,1.3323,1.3317,1.3316,1.3314,1.3443,1.3335,1.3336,1.3337,1.3337,1.3338,1.35,1.3475,1.3465,1.344,1.3431,1.3417,1.3393,1.3392,1.3368,1.3342,1.335,1.3315,1.3302,1.327,1.326,1.3232,1.3247,1.3232,1.3228,1.3223,1.3218,1.3323,1.3228,1.3228,1.3228,1.3228,1.3229,0,1.3399,1.3394,1.3371,1.3351,1.3331,1.335,1.3335,1.3316,1.3286,1.3274,1.3252,1.3218,1.319,1.3185,1.3158,1.3137,1.3143,1.3129,1.313,1.3127,1.3207,1.3218,1.3125,1.3125,1.3125,1.3125,1.3125,1.3125,1.3344,1.3302,1.3306,1.326,1.3255,1.3223,1.3213,1.32,1.319,1.3151,1.3129,1.3127,1.3117,1.309,1.3065,1.3064,1.3052,1.3036,1.3037,1.3111,1.3122,1.3131,1.3142,1.3034,1.3034,1.2959,1.2959,1.2958]}]]